Flag for Norway Weather past 2 weeks in Søgne, Norway

Now
60 °F

Cool.


Feels Like: 61 °F
Forecast: 54 / 68 °F
Wind: 3 mph from Southwest

Location: Oksoy Fyr

Current Time: Jul 29, 2015 at 1:50:06 PM

Latest Report: Jul 29, 2015 at 12:00 PM


Visibility: N/A

Pressure: 29.32 "Hg

Humidity: 87%

Dew point: 56 °F

Location of SøgneLocation

Historic Weather in Søgne — Graph

°F

Søgne temperature yesterday

Maximum temperature yesterday: 61 °F (at 1:00 PM)
Minimum temperature yesterday: 57 °F (at 3:00 AM)
Average temperature yesterday: 59 °F

Past Weeks' High & Low Weather Summary

 TemperatureHumidityPressure
High71 °F (Jul 14, 2:00 PM)95% (Jul 18, 2:00 AM)30.07 "Hg (Jul 18, 2:00 AM)
Low50 °F (Jul 27, 4:00 AM)31% (Jul 16, 4:00 PM)29.32 "Hg (Jul 29, 8:00 AM)
Average58 °F76%29.73 "Hg
* Reported Jul 14 12:00 Noon — Jul 29 12:00 Noon, Søgne, Weather by CustomWeather, © 2015

Note: Actual official high and low records may vary slightly from our data, if they occured in-between our weather recording intervals... More about our weather records

Advertising

Søgne weather history for previous 24 hours

 ConditionsComfort  
Time TempWeatherWind HumidityBarometerVisibility
12:00 PM
Wed, Jul 29
60 °FCool.3 mph87%29.32 "HgN/A
11:00 AM60 °FCool.3 mph91%29.32 "HgN/A
10:00 AM58 °FCool.1 mph93%29.32 "HgN/A
9:00 AM57 °FCool.3 mph94%29.32 "HgN/A
8:00 AM56 °FCool.6 mph94%29.32 "HgN/A
7:00 AM56 °FCool.5 mph91%29.35 "HgN/A
6:00 AM56 °FCool.6 mph92%29.35 "HgN/A
5:00 AM56 °FCool.6 mph93%29.38 "HgN/A
4:00 AM56 °FCool.6 mph92%29.41 "HgN/A
3:00 AM57 °FCool.5 mph90%29.41 "HgN/A
2:00 AM57 °FCool.5 mph91%29.41 "HgN/A
1:00 AM57 °FCool.6 mph91%29.44 "HgN/A
12:00 AM57 °FCool.5 mph91%29.44 "HgN/A
10:00 PM
Tue, Jul 28
57 °FCool.6 mph90%29.47 "HgN/A
9:00 PM58 °FCool.6 mph88%29.47 "HgN/A
8:00 PM59 °FCool.6 mph83%29.47 "HgN/A
7:00 PM59 °FCool.7 mph81%29.47 "HgN/A
6:00 PM60 °FCool.6 mph79%29.47 "HgN/A
5:00 PM60 °FCool.7 mph76%29.47 "HgN/A
4:00 PM60 °FCool.7 mph76%29.47 "HgN/A
3:00 PM60 °FCool.8 mph75%29.47 "HgN/A
2:00 PM60 °FCool.12 mph77%29.47 "HgN/A
1:00 PM61 °FCool.10 mph75%29.47 "HgN/A
Weather by CustomWeather, © 2015

See weather overviewHow to use our weather pages